Retour au catalogue

STARLINK-4372

ActifCommunicationsSSO
NORAD 53233·PAYLOAD·🇺🇸 United States

Lancé Jul 22, 2022 depuis Vandenberg Space Force Base

Loading…

Prochains Passages (prochaines 24 heures)

TLE

FraisSource: CelesTrak SupGP

Époque: Sep 14, 2026, 21:56 UTC

1 53233C 22084AW  26257.91437500 -.00005901  00000+0 -18324-3 0  2577
2 53233  97.2834 312.7206 0001628  90.4134 298.1796 15.33430966    13

Suivez STARLINK-4372 en temps réel avec AllMySat

Download on the App Store